NEPT-1 (48966 NORAD) Tracking and Keplerian Element Data

This shows tracking and keplerian element data for the satellite.

Feedback or suggestion? Click here.




ElementValue
Catalog48966
NameNEPT-1
Epoch Orbit1682
Epoch Day288.07987604
Epoch Year2021
RAAN55.2479
Inclination97.5143
Eccentricity0.0008128
Argument of Perigee211.4585
Mean Anonmoly234.8099
Mean Motion15.13330135
Decay Rate2.288E-05
L11 48966U 21059CR 21288.07987604 .00002288 00000-0 13202-3 0 9993
L22 48966 97.5143 55.2479 0008128 211.4585 234.8099 15.13330135 16828

Live tracking and technical data element details for NEPT-1 (NORAD 48966). NEPT-1 can be tracked NOW for your location showing map with azimuth and elevation plus other details from your city location.

Track the satellite on the map from your city or location and see movement details for azimuth, elevation, latitude, longitude, range, height, and movement on the map or in text.







IsCatalogInMostPopularTable: catalog: 48966, numindb: 17
Update: records affected: 1



GetName: 48966 NEPT-1

Hit Count: updated at: Tue, 19 Oct 2021 09:41:40 GMT